User: anonymous   Login
Location: Unspecified
(0.0000°N, 0.0000°E)
Time: 22:30:28
(UTC+00:00)
Language:

STARLINK-3697 - Orbit

View from above orbital plane
View from above orbital plane
View from above satellite
View from above satellite

Ground track
Ground track

The orbit is defined by the following mean orbital elements,

1 51962U          26145.38248860 +.00000000 +00000-0 +17743-3 0 00008
2 51962  53.1617  27.5926 0001317 102.6672 257.4477 15.31711186    05
Epoch (UTC): 25 May 2026 09:10:47
Eccentricity: 0.0001317
inclination: 53.1617°
perigee height: 470 km
apogee height: 472 km
right ascension of ascending node: 27.5926°
argument of perigee: 102.6672°
revolutions per day: 15.31711186
mean anomaly at epoch: 257.4477°

The dashed part of the orbit path shows where the satellite is in the earth's shadow,  

DLR